Regional Weather Roundup
Issued by NWS

Home | Current Version | Previous Version | Text Only | Print | Product List | Glossary Off
Versions: 1 2 3 4 5 6 7 8 9 10 11 12 13 14 15 16 17 18 19 20 21 22 23 24 25 26 27 28 29 30 31 32 33 34 35 36 37 38 39 40 41 42 43 44 45 46 47 48 49 50

000
ASUS43 KIND 170759
RWRIN

WEATHER ROUNDUP FOR INDIANA
NATIONAL WEATHER SERVICE INDIANAPOLIS IN
400 AM EDT WED SEP 17 2014

NOTE: "FAIR" INDICATES FEW OR NO CLOUDS BELOW 12,000 FEET WITH NO
SIGNIFICANT WEATHER AND/OR OBSTRUCTIONS TO VISIBILITY.

* - STATION DOES NOT REPORT WEATHER SUCH AS PRECIPITATION OR FOG.

+ - STATION NOT QUALITY CONTROLLED BY THE NATIONAL WEATHER SERVICE.
    USE DATA WITH CAUTION...ESPECIALLY DEWPOINT AND RELATIVE
    HUMIDITY OBSERVATIONS.

INZ001>003-010>013-019-020-170900-
NORTHWEST INDIANA

CITY           SKY/WX    TMP DP  RH WIND       PRES   REMARKS
VALPARAISO     FOG       44  43  96 CALM      30.08F VSB 3/4

$$

LMZ046-743>745-170900-
SOUTHERN LAKE MICHIGAN

STATION/POSITION TIME  TEMP WIND        PRES
                       AIR  DIR/SP/G
                 (UTC) (F)  (DEG/KT/KT) (MB)
MICHIGAN CITY    0700   50  140/  4/  6   N/A

$$

INZ004-005-014>016-021>024-170900-
NORTH CENTRAL INDIANA

CITY           SKY/WX    TMP DP  RH WIND       PRES   REMARKS
GOSHEN         FOG       43  42  97 CALM      30.08F VSB 3/4
SOUTH BEND     CLEAR     45  41  86 CALM      30.08F

$$

INZ006>009-017-018-025>027-170900-
NORTHEAST INDIANA

CITY           SKY/WX    TMP DP  RH WIND       PRES   REMARKS
ANGOLA *+      CLEAR     43  41  93 CALM      30.08S
FORT WAYNE     CLEAR     45  43  93 CALM      30.09F

$$

INZ028-029-035-036-043>045-051>053-170900-
WEST CENTRAL INDIANA

CITY           SKY/WX    TMP DP  RH WIND       PRES   REMARKS
GREENCASTLE +  FOG       45  45 100 CALM      30.09F VSB 1
LAFAYETTE      CLEAR     45  45 100 MISG      30.08F
TERRE HAUTE    FOG       44  43  96 CALM      30.08F VSB 1/2

$$

INZ030>032-037>040-046>048-054>057-064-065-170900-
CENTRAL INDIANA

CITY           SKY/WX    TMP DP  RH WIND       PRES   REMARKS
INDIANAPOLIS   CLEAR     49  48  97 CALM      30.08F FOG
-EAGLE CREEK   CLEAR     49  46  90 CALM      30.08F FOG
KOKOMO *+      CLEAR     45  43  93 S3        30.09F
MT COMFORT *+    N/A     43 N/A N/A CALM      30.09F VSB 1/4
SHELBYVILLE    FOG       45  42  89 E3        30.08F VSB 3/4

$$

INZ033-034-041-042-049-050-058-059-170900-
EAST CENTRAL INDIANA

CITY           SKY/WX    TMP DP  RH WIND       PRES   REMARKS
MUNCIE         CLEAR     44  42  93 N3        30.09F

$$

INZ060-061-067>069-081>083-085>088-170900-
SOUTHWEST INDIANA

CITY           SKY/WX    TMP DP  RH WIND       PRES   REMARKS
EVANSVILLE     CLEAR     49  46  90 CALM      30.09F

$$

INZ062-063-066-070>080-084-089>092-170900-
SOUTH CENTRAL AND SOUTHEAST INDIANA

CITY           SKY/WX    TMP DP  RH WIND       PRES   REMARKS
BLOOMINGTON    CLEAR     45  43  93 CALM      30.09F

$$




USA.gov is the U.S. government's official web portal to all federal, state and local government web resources and services.